Regional & State Weather Roundups


069 
ASUS45 KCYS 161810
RWRWY 
WYOMING REGIONAL WEATHER ROUNDUP
NATIONAL WEATHER SERVICE CHEYENNE WY
1100 AM MST SAT DEC 16 2017
NOTE:  "FAIR" INDICATES FEW OR NO CLOUDS BELOW 12,000 FEET
WITH NO SIGNIFICANT WEATHER AND/OR OBSTRUCTIONS TO VISIBILITY.
WYZ001-161900-
YELLOWSTONE NATIONAL PARK
  
CITY           SKY/WX    TMP DP  RH WIND       PRES   REMARKS
LK YELLOWSTONE   N/A     22  19  89 CALM      29.85S                  
6HR MIN TEMP:  19; 6HR MAX TEMP:  22; 6HR PCP:  0.09;                
W YELLOWSTONE  NOT AVBL                                               
$$
WYZ002>013-054>058-071-098>099-161900-
NORTHERN WYOMING
  
CITY           SKY/WX    TMP DP  RH WIND       PRES   REMARKS
JACKSON        CLOUDY    27  22  81 N10       29.86S WCI  17          
CODY           LGT SNOW  32  30  92 NE6       29.88F FOG     WCI  26  
GREYBULL       LGT SNOW  32  31  96 E3        29.88F VSB 1            
6HR MIN TEMP:  28; 6HR MAX TEMP:  31; 6HR PCP:  0.10;                
WORLAND        LGT SNOW  33  33 100 CALM      29.88F VSB 1            
6HR MIN TEMP:  32; 6HR MAX TEMP:  37; 6HR PCP:  0.10;                
SHERIDAN       SNOW      31  30  96 NE8       29.96F VSB 1/2 WCI  23  
6HR MIN TEMP:  31; 6HR MAX TEMP:  33; 6HR PCP:  0.21;                
BUFFALO        LGT SNOW  32  27  81 NE6       29.93S VSB 3/4 WCI  26  
6HR MIN TEMP:  32; 6HR MAX TEMP:  35; 6HR PCP:  0.11;                
GILLETTE       LGT SNOW  30  27  88 N12       29.94F VSB 3/4 WCI  20  
6HR MIN TEMP:  27; 6HR MAX TEMP:  31; 6HR PCP:  0.05;                
HULETT         LGT SNOW  32  28  86 CALM      29.97S                  
NEWCASTLE      LGT SNOW  32  32 100 CALM      29.93S VSB 3/4          
$$
WYZ014>020-022>026-101>103-161900-
CENTRAL WYOMING
  
CITY           SKY/WX    TMP DP  RH WIND       PRES   REMARKS
BIG PINEY      LGT SNOW  28  25  88 CALM      29.83S FOG              
6HR MIN TEMP:  22; 6HR MAX TEMP:  28; 6HR PCP: TRACE;                
PINEDALE       LGT SNOW  28  28 100 NW3       29.83F                  
DUBOIS         LGT SNOW  28  25  86 SE8       29.82R WCI  20          
LANDER         CLOUDY    29  26  89 NW9       29.83F WCI  20          
6HR MIN TEMP:  26; 6HR MAX TEMP:  34; 6HR PCP:  0.03;                
RIVERTON       LGT SNOW  28  27  96 NE8       29.84F FOG     WCI  20  
6HR MIN TEMP:  25; 6HR MAX TEMP:  30; 6HR PCP:  0.04;                
CASPER         LGT SNOW  31  29  92 E13       29.87F FOG     WCI  21  
6HR MIN TEMP:  30; 6HR MAX TEMP:  34; 6HR PCP:  0.03;                
DOUGLAS        CLOUDY    34  29  82 NE3       29.89F                  
6HR MIN TEMP:  32; 6HR MAX TEMP:  36; 6HR PCP: TRACE;                
$$
WYZ021-027>030-104>119-161900-
SOUTHERN WYOMING
  
CITY           SKY/WX    TMP DP  RH WIND       PRES   REMARKS
EVANSTON       CLOUDY    32  26  78 N5        29.82  WCI  27          
6HR MIN TEMP:  28; 6HR MAX TEMP:  36;                                
FORT BRIDGER   FAIR      33  25  72 N3        29.85F                  
ROCK SPRINGS   CLOUDY    33  23  66 S7        29.82F WCI  27          
6HR MIN TEMP:  26; 6HR MAX TEMP:  33;                                
DIXON          FAIR      31  15  51 SE8       29.85F WCI  23          
RAWLINS        CLOUDY    32  22  66 SE5       29.84S WCI  27          
6HR MIN TEMP:  30; 6HR MAX TEMP:  34;                                
SARATOGA       MOCLDY    32  18  55 S10       29.84F WCI  24          
LARAMIE        PTSUNNY   29  21  72 VRB3      29.83F                  
6HR MIN TEMP:  27; 6HR MAX TEMP:  33;                                
CHEYENNE       FAIR      36  17  46 N12       29.85F WCI  28          
6HR MIN TEMP:  34; 6HR MAX TEMP:  44;                                
TORRINGTON     FAIR      39  22  50 NE12      29.89R WCI  32          
6HR MIN TEMP:  34; 6HR MAX TEMP:  40;                                
PINE BLUFFS    FAIR      43  18  36 MISG      29.86S                  
$$